Find OneWeb SL0261

NORAD ID: 48979 Int'l Des: 2021-060 Owner: ONEWEBN Country: UK Constellation: oneweb operational
LEOCIRCULARPOLARONEWEB_TYPE

实时位置

正在加载3D地球...

关于 OneWeb SL0261

正在加载描述...

即将过境

Passes for default location (London). Set your location on the main map for personalized predictions.

高度历史

Loading altitude history...

两行轨道根数

1 48979U 21060N 26133.02462463 -.00000017 00000-0 -77328-4 0 9999
2 48979 87.9096 235.7662 0001972 91.3375 268.7982 13.16593256235032
Epoch: May 13, 2026 • Age: 8 hours

当前状态

高度 1207.6 km
速度 7.26 km/s
星下点 64.49°N, 53.15°E
发射日期 Jul 1, 2021
运行时间 4.8 years
类型 internet

技术详情

分类 Payload
质量 148.00 kg
干质量 140.00 kg
总质量 148.00 kg
长度 1.30 m
直径 1.00 m
跨度 5.00 m
形状 Trapezoid+2 pan
制造商 ONEWUS
平台类型 ARROW
阶段状态 In Orbit
所有者/国家 ONEWEBN/UK

Most Searched